DW4238 Weather Reports


time (UTC)temp
C
wind
direction
speed
KPH
gust
KPH
rain 1hr
cm
rain 24hr
cm
rain mn
cm
humidity
%
barometer
mb
20260504194526 26 206 12.9 25.7 0.00 0.00 0.00 65 1011.7
20260504194137 26 196 16.1 25.7 0.00 0.00 0.00 64 1011.9
20260504193622 26 167 17.7 25.7 0.00 0.00 0.00 65 1011.9
20260504193053 26 189 19.3 25.7 0.00 0.00 0.00 65 1012.0
20260504192542 26 172 16.1 25.7 0.00 0.00 0.00 65 1011.9
20260504191602 26 211 16.1 27.4 0.00 0.00 0.00 66 1012.1
20260504191044 26 171 19.3 27.4 0.00 0.00 0.00 65 1012.1
20260504190045 25 184 17.7 27.4 0.00 0.00 0.00 65 1012.3
20260504185537 25 162 14.5 27.4 0.00 0.00 0.00 65 1012.3
20260504184555 25 159 16.1 22.5 0.00 0.00 0.00 67 1012.6
20260504184059 25 171 14.5 27.4 0.00 0.00 0.00 66 1012.6
20260504183109 25 168 12.9 27.4 0.00 0.00 0.00 65 1012.8
20260504182550 25 158 12.9 24.1 0.00 0.00 0.00 67 1012.8
20260504181611 25 195 16.1 29.0 0.00 0.00 0.00 66 1012.9
20260504181100 25 221 17.7 29.0 0.00 0.00 0.00 65 1013.0
20260504180600 25 180 12.9 24.1 0.00 0.00 0.00 67 1013.1
20260504180030 25 178 16.1 27.4 0.00 0.00 0.00 64 1013.1
20260504175541 25 207 16.1 27.4 0.00 0.00 0.00 64 1013.0
20260504175143 25 198 20.9 27.4 0.00 0.00 0.00 64 1013.1
20260504174548 25 183 14.5 29.0 0.00 0.00 0.00 64 1013.2
20260504174100 25 196 17.7 29.0 0.00 0.00 0.00 62 1013.3
20260504173601 25 207 14.5 29.0 0.00 0.00 0.00 62 1013.4
20260504173032 25 163 20.9 35.4 0.00 0.00 0.00 64 1013.3
20260504172632 25 201 19.3 35.4 0.00 0.00 0.00 64 1013.4
20260504172119 25 186 20.9 32.2 0.00 0.00 0.00 63 1013.3
20260504171528 24 171 22.5 32.2 0.00 0.00 0.00 64 1013.5
20260504171030 24 188 19.3 30.6 0.00 0.00 0.00 64 1013.6
20260504170641 24 150 19.3 30.6 0.00 0.00 0.00 65 1013.7
20260504151053 22 229 19.3 27.4 0.00 0.00 0.00 71 1014.6
20260504141028 20 187 16.1 24.1 0.00 0.00 0.00 74 1014.7
20260504130623 17 170 11.3 17.7 0.00 0.00 0.00 77 1014.9
20260504110103 15 173 9.7 12.9 0.00 0.00 0.00 81 1014.1
20260504100105 15 167 14.5 19.3 0.00 0.00 0.00 80 1014.3
20260504081619 16 186 12.9 16.1 0.00 0.00 0.00 77 1014.8
20260504081122 16 159 12.9 16.1 0.00 0.00 0.00 77 1014.8
20260504080605 16 183 14.5 16.1 0.00 0.00 0.00 76 1014.9
20260504050545 17 171 12.9 16.1 0.00 0.00 0.00 73 1016.9
20260504045542 18 180 12.9 19.3 0.00 0.00 0.00 72 1017.0
20260504044548 18 180 12.9 16.1 0.00 0.00 0.00 72 1017.0
20260504044053 18 171 12.9 17.7 0.00 0.00 0.00 72 1017.0
20260504043644 18 186 12.9 17.7 0.00 0.00 0.00 72 1017.1
20260504043051 18 184 11.3 17.7 0.00 0.00 0.00 72 1017.2
20260504042534 18 175 11.3 19.3 0.00 0.00 0.00 71 1017.3
20260504041603 18 177 14.5 17.7 0.00 0.00 0.00 71 1017.3
20260504041045 18 181 12.9 19.3 0.00 0.00 0.00 71 1017.3
20260504040538 18 178 12.9 19.3 0.00 0.00 0.00 71 1017.4
20260504040139 18 178 11.3 17.7 0.00 0.00 0.00 71 1017.4
20260504035529 18 171 12.9 17.7 0.00 0.00 0.00 70 1017.3
20260504035033 18 175 12.9 17.7 0.00 0.00 0.00 71 1017.3
20260504034646 18 170 14.5 17.7 0.00 0.00 0.00 71 1017.3
20260504034035 19 178 9.7 17.7 0.00 0.00 0.00 70 1017.4
20260504033055 19 184 12.9 17.7 0.00 0.00 0.00 69 1017.3
20260504032538 19 171 11.3 14.5 0.00 0.00 0.00 69 1017.2
20260504031608 19 182 11.3 17.7 0.00 0.00 0.00 68 1017.0
20260504031113 20 180 12.9 16.1 0.00 0.00 0.00 67 1017.1
20260504030623 20 185 12.9 16.1 0.00 0.00 0.00 67 1017.1
20260504030055 20 186 12.9 17.7 0.00 0.00 0.00 66 1017.1
20260504025559 20 171 12.9 17.7 0.00 0.00 0.00 65 1017.0
20260504024617 20 177 16.1 17.7 0.00 0.00 0.00 63 1016.9
20260504024029 19 153 8.0 11.3 0.00 0.00 0.00 62 1016.8
20260504023050 20 202 4.8 8.0 0.00 0.00 0.00 60 1016.8
20260504022603 20 203 4.8 8.0 0.00 0.00 0.00 59 1016.6
20260504021606 20 206 4.8 6.4 0.00 0.00 0.00 59 1016.5
20260504021116 20 206 4.8 6.4 0.00 0.00 0.00 59 1016.6
20260504020137 20 207 4.8 6.4 0.00 0.00 0.00 57 1016.5
20260504015621 21 207 4.8 6.4 0.00 0.00 0.00 57 1016.6
20260504015132 21 208 4.8 6.4 0.00 0.00 0.00 57 1016.6
20260504014534 21 208 4.8 6.4 0.00 0.00 0.00 57 1016.5
20260504014039 21 208 4.8 6.4 0.00 0.00 0.00 56 1016.5
20260504013040 21 208 3.2 4.8 0.00 0.00 0.00 56 1016.4
20260504012554 21 208 3.2 6.4 0.00 0.00 0.00 55 1016.3
20260504011028 22 209 4.8 8.0 0.00 0.00 0.00 53 1016.3
20260504010641 22 209 4.8 8.0 0.00 0.00 0.00 54 1016.3
20260504010038 22 211 4.8 6.4 0.00 0.00 0.00 53 1016.3
20260504005548 22 211 4.8 8.0 0.00 0.00 0.00 53 1016.3
20260504004608 22 212 6.4 8.0 0.00 0.00 0.00 52 1016.4
20260504004059 22 217 4.8 9.7 0.00 0.00 0.00 52 1016.4
20260504003102 22 178 6.4 9.7 0.00 0.00 0.00 50 1016.6
20260504002614 23 172 8.0 9.7 0.00 0.00 0.00 49 1016.6
20260504001615 23 155 8.0 12.9 0.00 0.00 0.00 49 1016.7
20260504001119 23 191 8.0 11.3 0.00 0.00 0.00 49 1016.9
20260504000529 23 186 4.8 11.3 0.00 0.00 0.00 49 1016.9
20260504000120 23 194 6.4 12.9 0.00 0.00 0.00 48 1016.8
20260503235625 24 194 8.0 16.1 0.00 0.00 0.00 45 1016.8
20260503235114 24 138 9.7 16.1 0.00 0.00 0.00 46 1016.8
20260503234532 25 165 12.9 17.7 0.00 0.00 0.00 45 1016.8
20260503234044 25 184 9.7 20.9 0.00 0.00 0.00 46 1016.7
20260503233110 25 177 11.3 19.3 0.00 0.00 0.00 47 1016.8
20260503232601 25 167 12.9 17.7 0.00 0.00 0.00 47 1016.9
20260503231619 25 187 12.9 19.3 0.00 0.00 0.00 45 1017.0
20260503231031 25 188 9.7 16.1 0.00 0.00 0.00 46 1016.9
20260503230051 25 181 14.5 20.9 0.00 0.00 0.00 44 1017.0
20260503225534 25 175 12.9 19.3 0.00 0.00 0.00 46 1017.0
20260503225144 25 198 11.3 22.5 0.00 0.00 0.00 46 1017.0
20260503224546 25 141 16.1 29.0 0.00 0.00 0.00 44 1017.1
20260503224058 25 159 14.5 25.7 0.00 0.00 0.00 45 1017.1
20260503223558 25 172 17.7 24.1 0.00 0.00 0.00 45 1017.2
20260503223030 25 150 14.5 24.1 0.00 0.00 0.00 48 1017.1
20260503222540 25 185 9.7 24.1 0.00 0.00 0.00 48 1017.3
20260503221603 25 161 17.7 24.1 0.00 0.00 0.00 45 1017.4
20260503221113 25 184 11.3 17.7 0.00 0.00 0.00 43 1017.4
20260503220618 25 176 12.9 17.7 0.00 0.00 0.00 43 1017.4
20260503220048 25 157 12.9 17.7 0.00 0.00 0.00 44 1017.6
20260503215553 25 192 11.3 22.5 0.00 0.00 0.00 45 1017.6
20260503214622 25 171 11.3 20.9 0.00 0.00 0.00 44 1017.9
20260503214103 25 220 8.0 19.3 0.00 0.00 0.00 44 1018.0
20260503213612 25 184 11.3 19.3 0.00 0.00 0.00 47 1018.0
20260503213031 25 107 11.3 27.4 0.00 0.00 0.00 46 1017.9
20260503212541 25 126 12.9 27.4 0.00 0.00 0.00 45 1018.0
20260503211540 25 148 9.7 24.1 0.00 0.00 0.00 47 1017.9
20260503211050 25 140 19.3 27.4 0.00 0.00 0.00 45 1018.2
20260503210115 25 139 9.7 22.5 0.00 0.00 0.00 45 1018.5
20260503205603 25 153 16.1 22.5 0.00 0.00 0.00 42 1018.6
20260503205103 25 130 8.0 17.7 0.00 0.00 0.00 44 1018.6
20260503204534 25 150 8.0 17.7 0.00 0.00 0.00 42 1018.7
20260503204039 26 122 11.3 19.3 0.00 0.00 0.00 45 1018.7
20260503203044 26 171 11.3 19.3 0.00 0.00 0.00 45 1018.9
20260503202549 25 89 6.4 14.5 0.00 0.00 0.00 45 1019.0
20260503201547 25 142 6.4 17.7 0.00 0.00 0.00 45 1019.2
20260503201100 25 136 8.0 22.5 0.00 0.00 0.00 43 1019.3
20260503200123 25 126 16.1 20.9 0.00 0.00 0.00 44 1019.3
20260503195533 25 150 6.4 17.7 0.00 0.00 0.00 45 1019.2
20260503195125 25 115 9.7 17.7 0.00 0.00 0.00 43 1019.4